When you browse on this site, cookies collect data to enhance your experience and personalize the content and advertising you see.
Visit our Privacy Policy to learn more. By continuing to use the site, you agree to this use of cookies and data.
  • In Austria
  • List of Countries
  • For 7 days
  • Water Temperature
  • Satellite Maps
  • Weather Map
  • News
  • Weather Widgets
  • user-avatar
    Login

    Hourly Weather Adelaide

    Today, 18 January, Friday

    Time Temperature Precipitation Wind Pressure Humidity
    00:00 +28°C° 0 mm 2 mps 751 mmHg 52%
    01:00 +27°C° 0 mm 2 mps 752 mmHg 56%
    02:00 +27°C° 0 mm 2 mps 752 mmHg 59%
    03:00 +28°C° 0 mm 2 mps 751 mmHg 51%
    04:00 +27°C° 0.1 mm 2 mps 752 mmHg 53%
    05:00 +27°C° 0.1 mm 2 mps 752 mmHg 56%
    06:00 +27°C° 0.1 mm 2 mps 753 mmHg 58%
    07:00 +27°C° 0 mm 3 mps 753 mmHg 59%
    08:00 +27°C° 0 mm 4 mps 754 mmHg 60%
    09:00 +27°C° 0 mm 4 mps 755 mmHg 63%
    10:00 +27°C° 0.1 mm 4 mps 755 mmHg 61%
    11:00 +27°C° 0.1 mm 4 mps 756 mmHg 60%
    12:00 +27°C° 0.1 mm 4 mps 756 mmHg 58%
    13:00 +27°C° 0 mm 4 mps 756 mmHg 54%
    14:00 +27°C° 0 mm 4 mps 756 mmHg 50%
    15:00 +28°C° 0 mm 4 mps 756 mmHg 46%
    16:00 +27°C° 0 mm 4 mps 757 mmHg 47%
    17:00 +26°C° 0 mm 5 mps 757 mmHg 49%
    18:00 +25°C° 0 mm 5 mps 757 mmHg 50%
    19:00 +23°C° 0 mm 5 mps 758 mmHg 58%
    20:00 +21°C° 0 mm 5 mps 759 mmHg 66%
    21:00 +20°C° 0 mm 5 mps 759 mmHg 74%
    22:00 +20°C° 0 mm 4 mps 760 mmHg 74%
    23:00 +20°C° 0 mm 4 mps 760 mmHg 74%

    Tomorrow, 19 January, Saturday

    Time Temperature Precipitation Wind Pressure Humidity
    00:00 +19°C° 0 mm 4 mps 760 mmHg 75%
    01:00 +19°C° 0 mm 4 mps 760 mmHg 75%
    02:00 +19°C° 0 mm 4 mps 760 mmHg 76%
    03:00 +18°C° 0 mm 3 mps 760 mmHg 77%
    04:00 +18°C° 0 mm 3 mps 761 mmHg 76%
    05:00 +18°C° 0 mm 4 mps 761 mmHg 74%
    06:00 +18°C° 0 mm 4 mps 762 mmHg 73%
    07:00 +20°C° 0 mm 4 mps 762 mmHg 65%
    08:00 +22°C° 0 mm 3 mps 762 mmHg 57%
    09:00 +25°C° 0 mm 3 mps 763 mmHg 49%
    10:00 +26°C° 0 mm 3 mps 762 mmHg 44%
    11:00 +27°C° 0 mm 4 mps 762 mmHg 40%
    12:00 +29°C° 0 mm 4 mps 762 mmHg 35%
    13:00 +29°C° 0 mm 4 mps 762 mmHg 35%
    14:00 +29°C° 0 mm 5 mps 761 mmHg 35%
    15:00 +29°C° 0 mm 5 mps 761 mmHg 35%
    16:00 +27°C° 0 mm 5 mps 761 mmHg 40%
    17:00 +26°C° 0 mm 5 mps 761 mmHg 44%
    18:00 +23°C° 0 mm 6 mps 761 mmHg 48%
    19:00 +22°C° 0 mm 5 mps 761 mmHg 53%
    20:00 +21°C° 0 mm 5 mps 762 mmHg 59%
    21:00 +20°C° 0 mm 5 mps 762 mmHg 64%
    22:00 +19°C° 0 mm 5 mps 762 mmHg 65%
    23:00 +19°C° 0 mm 5 mps 762 mmHg 67%

    Day after tomorrow, 20 January, Sunday

    Time Temperature Precipitation Wind Pressure Humidity
    00:00 +19°C° 0 mm 4 mps 762 mmHg 68%
    01:00 +19°C° 0 mm 4 mps 762 mmHg 67%
    02:00 +19°C° 0 mm 4 mps 761 mmHg 67%
    03:00 +19°C° 0 mm 4 mps 761 mmHg 66%
    04:00 +19°C° 0 mm 4 mps 761 mmHg 64%
    05:00 +19°C° 0 mm 4 mps 761 mmHg 62%
    06:00 +19°C° 0 mm 4 mps 761 mmHg 60%
    07:00 +21°C° 0 mm 4 mps 761 mmHg 53%
    08:00 +25°C° 0 mm 3 mps 761 mmHg 45%
    09:00 +27°C° 0 mm 3 mps 761 mmHg 38%
    10:00 +29°C° 0 mm 3 mps 761 mmHg 33%
    11:00 +32°C° 0 mm 2 mps 761 mmHg 29%
    12:00 +35°C° 0 mm 2 mps 760 mmHg 24%
    13:00 +35°C° 0 mm 3 mps 760 mmHg 25%
    14:00 +35°C° 0 mm 4 mps 759 mmHg 25%
    15:00 +35°C° 0 mm 4 mps 759 mmHg 25%
    16:00 +33°C° 0 mm 4 mps 759 mmHg 31%
    17:00 +30°C° 0 mm 5 mps 758 mmHg 37%
    18:00 +28°C° 0 mm 5 mps 758 mmHg 43%
    19:00 +27°C° 0 mm 5 mps 759 mmHg 51%
    20:00 +25°C° 0 mm 4 mps 759 mmHg 59%
    21:00 +22°C° 0 mm 4 mps 760 mmHg 67%
    22:00 +22°C° 0 mm 4 mps 759 mmHg 68%
    23:00 +22°C° 0 mm 4 mps 759 mmHg 69%

    21 January, Monday

    Time Temperature Precipitation Wind Pressure Humidity
    00:00 +22°C° 0 mm 3 mps 759 mmHg 70%
    01:00 +22°C° 0 mm 3 mps 758 mmHg 69%
    02:00 +22°C° 0 mm 3 mps 758 mmHg 69%
    03:00 +23°C° 0 mm 2 mps 758 mmHg 68%
    04:00 +24°C° 0 mm 2 mps 758 mmHg 66%
    05:00 +24°C° 0 mm 2 mps 758 mmHg 63%
    06:00 +25°C° 0 mm 2 mps 758 mmHg 61%
    07:00 +27°C° 0 mm 2 mps 758 mmHg 54%
    08:00 +30°C° 0 mm 1 mps 758 mmHg 47%
    09:00 +32°C° 0 mm 1 mps 758 mmHg 39%
    10:00 +35°C° 0 mm 2 mps 757 mmHg 35%
    11:00 +36°C° 0 mm 2 mps 757 mmHg 31%
    12:00 +38°C° 0 mm 3 mps 757 mmHg 27%
    13:00 +37°C° 0 mm 3 mps 756 mmHg 27%
    14:00 +37°C° 0 mm 4 mps 756 mmHg 27%
    15:00 +37°C° 0 mm 4 mps 755 mmHg 28%
    16:00 +35°C° 0 mm 4 mps 755 mmHg 30%
    17:00 +34°C° 0 mm 4 mps 756 mmHg 33%
    18:00 +33°C° 0 mm 3 mps 756 mmHg 36%
    19:00 +30°C° 0 mm 3 mps 756 mmHg 42%
    20:00 +29°C° 0 mm 3 mps 757 mmHg 48%
    21:00 +27°C° 0 mm 3 mps 757 mmHg 55%
    22:00 +27°C° 0 mm 2 mps 757 mmHg 56%
    23:00 +26°C° 0 mm 2 mps 756 mmHg 56%

    22 January, Tuesday

    Time Temperature Precipitation Wind Pressure Humidity
    00:00 +26°C° 0 mm 2 mps 756 mmHg 57%
    01:00 +25°C° 0 mm 2 mps 756 mmHg 57%
    02:00 +25°C° 0 mm 2 mps 755 mmHg 56%
    03:00 +25°C° 0 mm 2 mps 755 mmHg 56%
    04:00 +26°C° 0 mm 1 mps 755 mmHg 55%
    05:00 +26°C° 0 mm 1 mps 755 mmHg 53%
    06:00 +26°C° 0 mm 1 mps 756 mmHg 52%
    07:00 +29°C° 0 mm 1 mps 756 mmHg 46%
    08:00 +31°C° 0 mm 1 mps 756 mmHg 40%
    09:00 +35°C° 0 mm 2 mps 756 mmHg 34%
    10:00 +36°C° 0 mm 2 mps 756 mmHg 32%
    11:00 +36°C° 0 mm 3 mps 755 mmHg 30%
    12:00 +37°C° 0 mm 3 mps 755 mmHg 28%
    13:00 +37°C° 0 mm 4 mps 755 mmHg 28%
    14:00 +37°C° 0 mm 4 mps 754 mmHg 28%
    15:00 +37°C° 0 mm 4 mps 754 mmHg 28%
    16:00 +36°C° 0 mm 4 mps 754 mmHg 31%
    17:00 +34°C° 0 mm 5 mps 754 mmHg 33%
    18:00 +33°C° 0 mm 5 mps 755 mmHg 36%
    19:00 +30°C° 0 mm 6 mps 755 mmHg 42%
    20:00 +27°C° 0 mm 6 mps 756 mmHg 48%
    21:00 +24°C° 0 mm 6 mps 757 mmHg 54%
    22:00 +24°C° 0 mm 6 mps 757 mmHg 53%
    23:00 +25°C° 0 mm 5 mps 756 mmHg 52%

    23 January, Wednesday

    Time Temperature Precipitation Wind Pressure Humidity
    00:00 +25°C° 0 mm 5 mps 756 mmHg 51%
    01:00 +23°C° 0 mm 5 mps 756 mmHg 51%
    02:00 +23°C° 0 mm 4 mps 756 mmHg 51%
    03:00 +23°C° 0 mm 4 mps 756 mmHg 52%
    04:00 +23°C° 0 mm 4 mps 756 mmHg 51%
    05:00 +23°C° 0 mm 4 mps 756 mmHg 50%
    06:00 +23°C° 0 mm 4 mps 757 mmHg 49%
    07:00 +26°C° 0 mm 4 mps 757 mmHg 43%
    08:00 +28°C° 0 mm 4 mps 757 mmHg 37%
    09:00 +30°C° 0 mm 4 mps 757 mmHg 32%
    10:00 +33°C° 0 mm 4 mps 757 mmHg 28%
    11:00 +35°C° 0 mm 4 mps 756 mmHg 25%
    12:00 +37°C° 0 mm 4 mps 756 mmHg 22%
    13:00 +37°C° 0 mm 4 mps 755 mmHg 24%
    14:00 +37°C° 0 mm 5 mps 755 mmHg 26%
    15:00 +37°C° 0 mm 5 mps 754 mmHg 28%
    16:00 +35°C° 0 mm 6 mps 754 mmHg 34%
    17:00 +33°C° 0 mm 6 mps 754 mmHg 41%
    18:00 +30°C° 0 mm 6 mps 754 mmHg 47%
    19:00 +29°C° 0 mm 6 mps 754 mmHg 47%
    20:00 +28°C° 0 mm 6 mps 755 mmHg 47%
    21:00 +27°C° 0 mm 6 mps 755 mmHg 47%
    22:00 +27°C° 0 mm 6 mps 755 mmHg 44%
    23:00 +28°C° 0 mm 6 mps 755 mmHg 40%
    Show more